Tracking 29030 objects as of 25-Jun-2024
HD Live streaming from Space Station
objects crossing your sky now

ARIANE 44LP DEB

Track ARIANE 44LP DEB now!


NORAD ID: 33543
Int'l Code: 1988-109S
Perigee: 611.6 km
Apogee: 35,655.7 km
Inclination: 7.4 °
Period: 636.3 minutes
Semi major axis: 24504 km
RCS: 0.5686 m2 (medium)
Launch date: December 11, 1988
Source: France (FR)
Launch site: FRENCH GUIANA (FRGUI)

Note: This is SATELLITE DEBRIS
Your satellite tracking list
Your tracking list is empty




NASA's NSSDC Master Catalog

Two Line Element Set (TLE):
1 33543U 88109S   24176.63922708  .00000026  00000-0  12462-2 0  9996
2 33543   7.4225 329.8392 7150498 236.0673  57.5649  2.26323870179395
Source of the keplerian elements: AFSPC